#timestamp,LO_Frequency,Hit,StdDev 
1516582815.2,286045187.4,N
1516582835.1,286044531.9,N
1516582836.0,286044531.9,N
1516582855.8,286044347.2,N
1516582875.6,286046783.6,N
1516582895.4,286046780.7,N
1516582915.3,286046798.2,N
1516582935.1,286046807.6,N
1516582955.8,286046651.0,N
1516582975.7,286046874.3,N
1516582995.5,286046872.5,N
1516583015.3,286046870.5,N
1516583035.2,286046816.0,N
1516583055.9,286046867.4,N
1516583075.7,286046815.4,N
1516583095.6,286047034.5,N
1516583115.4,286046865.2,N
1516583135.2,286046973.5,N
1516583155.1,286046861.5,N
1516583156.0,286046861.5,N
1516583175.8,286046803.0,N
1516583195.6,286046801.7,N
1516583215.4,286046854.4,N
1516583235.3,286046853.2,N
1516583255.1,286047072.0,N
1516583275.8,286046795.8,N
1516583295.7,286047072.9,N
1516583315.5,286046846.7,N
1516583335.3,286047073.7,N
1516583355.2,286046787.1,N
1516583375.9,286047075.2,N
1516583395.7,286047075.1,N
1516583415.6,286046722.9,N
1516583435.4,286045734.6,N
1516583455.2,286046778.6,N
1516583475.1,286046777.0,N
1516583476.0,286046777.0,N
1516583495.8,286046831.9,N
1516583515.6,286046766.8,N
1516583535.5,286046980.1,N
1516583555.3,286047208.6,N
1516583575.1,286046889.1,N
1516583595.9,286046885.1,N
1516583615.7,286046883.5,N
1516583635.5,286046821.2,N
1516583655.3,286046818.6,N
1516583675.2,286046565.2,N
1516583695.0,286046188.5,Y
1516583695.9,286046188.5,P
1516583715.7,286046845.8,N
1516583735.6,286046813.8,N
1516583755.4,286047215.8,N
1516583775.2,286047214.5,N
1516583795.1,286046969.2,N
1516583796.0,286046969.2,N
1516583815.8,286046903.6,N
1516583835.6,286047211.7,N
1516583855.5,286046963.6,N
1516583875.3,286047208.7,N
1516583895.1,286046963.7,N
1516583915.9,286046965.9,N
1516583935.7,286046965.6,N
1516583955.5,286046963.0,N
1516583975.3,286047297.3,N
1516583995.2,286047300.3,N
1516584015.0,286047299.6,N
1516584015.9,286047299.6,N
1516584035.7,286047302.0,N
1516584055.6,286047301.5,N
1516584075.4,286046964.5,N
1516584095.2,286046967.6,N
1516584115.1,286047308.7,N
1516584116.0,286047308.7,N
1516584135.8,286047308.7,N
1516584155.6,286047311.2,N
1516584175.5,286047181.4,N
1516584195.3,286047179.8,N
1516584215.1,286046935.3,N
1516584235.9,286047176.9,N
1516584255.7,286047176.8,N
1516584275.5,286047177.0,N
1516584295.3,286047177.0,N
1516584315.2,286047176.6,N
1516584335.0,286047176.6,N
1516584335.9,286047176.6,N
1516584355.7,286047310.7,N
1516584375.6,286047312.8,N
1516584395.4,286047162.8,N
1516584415.2,286047306.5,N
1516584435.1,286047159.0,N
1516584436.0,286047159.0,N
1516584455.8,286047306.0,N
1516584475.6,286047153.5,N
1516584495.5,286047153.0,N
1516584515.3,286047308.2,N
1516584535.1,286047147.0,N
1516584555.9,286047148.4,N
1516584575.7,286047309.9,N
1516584595.5,286047144.9,N
1516584615.4,286047021.8,N
1516584635.2,286047309.4,Y
1516584655.0,286046679.8,P
1516584655.9,286046679.8,N
1516584675.8,286046885.7,N
1516584695.6,286047217.5,N
1516584715.4,286047297.0,N
1516584735.3,286047658.9,N
1516584755.1,286046930.8,N
1516584756.0,286046930.8,N
1516584775.8,286046930.8,N
1516584795.6,286046691.5,N
1516584815.5,286046923.2,N
1516584835.3,286046921.9,N
1516584855.1,286046688.1,N
1516584875.9,286046918.6,N
1516584895.7,286046687.9,N
1516584915.5,286047118.6,N
1516584935.4,286047118.2,N
1516584955.2,286047120.6,N
1516584975.0,286047120.5,N
1516584975.9,286047120.5,N
1516584995.8,286047875.0,Y
1516585015.6,286045691.2,P
1516585035.4,286045686.5,N
1516585055.3,286047017.5,N
1516585075.1,286048029.6,N
1516585076.0,286048029.6,N
1516585095.8,286047827.3,N
1516585115.7,286047416.8,N
1516585135.5,286047262.8,N
1516585155.3,286047262.4,N
1516585175.1,286046902.9,N
1516585195.9,286046983.8,N
1516585215.7,286046898.6,N
1516585235.5,286047021.9,N
1516585255.4,286047019.6,N
1516585275.2,286047236.7,N
1516585295.0,286047139.8,N
1516585295.9,286047139.8,N
1516585315.8,286047092.2,N
1516585335.6,286047091.8,N
1516585355.4,286047201.7,N
1516585375.3,286047204.3,N
1516585395.1,286047865.0,N
1516585396.0,286047865.0,N
1516585415.8,286047201.9,N
1516585435.7,286047204.3,N
1516585455.5,286047201.4,N
1516585475.3,286047089.3,N
1516585495.1,286047112.2,N
1516585515.9,286047111.7,N
1516585535.7,286047102.9,N
1516585555.5,286047711.8,N
1516585605.4,286047159.0,E
1516585615.3,286047084.8,N
1516585635.2,286046998.3,P
1516585655.9,286047001.2,N
1516585675.7,286047001.2,N
1516585695.5,286046998.1,N
1516585715.4,286047001.2,N
1516585735.2,286047000.5,N
1516585755.0,286047000.7,N
1516585755.9,286047000.7,N
1516585775.8,286047001.0,N
1516585795.6,286046999.9,N
1516585815.4,286047000.4,N
1516585835.3,286047002.2,N
1516585855.1,286047002.4,N
1516585875.8,286047002.0,N
1516585895.7,286047002.6,N
1516585915.5,286047001.5,N
1516585935.3,286047001.7,N
1516585955.2,286047001.4,N
1516585975.9,286047001.4,N
1516585995.7,286047004.1,N
1516586015.5,286047003.6,N
1516586035.4,286047003.1,N
1516586055.2,286047003.3,N
1516586075.0,286047002.9,N
1516586075.9,286047002.9,N
1516586095.8,286047003.2,N
1516586115.6,286047003.4,N
1516586135.4,286047005.5,N
1516586155.3,286047003.2,N
1516586175.1,286047003.1,N
1516586195.8,286047005.5,Y
1516586215.7,286047004.2,P
1516586235.5,286047003.6,P
1516586255.3,286047003.8,P
1516586275.2,286047003.5,Y
1516586295.9,286047000.3,P
1516586315.7,286047002.7,N
1516586335.6,286047002.7,N
1516586355.4,286047002.6,N
1516586375.2,286047001.7,N
1516586395.1,286047001.9,N
1516586396.0,286047001.9,N
